Location: Newark
(44.1906°N, 75.9681°W)
Time: 00:55:21
(UTC+00:00)

Envisat - Pass Details

Date: 25 January 2020
Orbit: 764 x 766 km, 98.1° (Epoch: 27 February)

Event Time Altitude Azimuth Distance (km) Brightness Sun altitude
Rises 22:28:08 0° 154° (SSE) 3,220 6.2 -4.9°
Reaches altitude 10° 22:30:27 10° 151° (SSE) 2,298 5.4 -5.2°
Maximum altitude 22:35:26 60° 73° (ENE) 875 3.0 -6.1°
Drops below altitude 10° 22:40:26 10° 354° (N) 2,314 5.4 -6.9°
Sets 22:42:47 0° 351° (N) 3,244 6.1 -7.3°
